Hickory, NC

12:56 AM EDT on June 27, 2017 (GMT -0400)
Hickory Regional

Weather History for KHKY - March, 2012

Change the Weather History Date:

Friday, March 30, 2012

  Actual Average Record
Temperature  
Mean Temperature 64 °F -  
Max Temperature 75 °F 66 °F 85 °F (1985)
Min Temperature 52 °F 45 °F 21 °F (1964)
Degree Days  
Heating Degree Days 2    
Growing Degree Days 14 (Base 50)    
Moisture  
Dew Point 49 °F    
Average Humidity 63    
Maximum Humidity 90    
Minimum Humidity 35    
Precipitation  
Precipitation 0.01 in - - ()
Sea Level Pressure  
Sea Level Pressure 29.91 in    
Wind  
Wind Speed 3 mph (North)    
Max Wind Speed 10 mph    
Max Gust Speed 17 mph    
Visibility 10 miles    
Events Rain    
Averages and records for this station are not official NWS values.
T = Trace of Precipitation, MM = Missing Value Source: NWS Daily Summary

Daily Weather History Graph

Daily Weather History Graph

Search for Another Location

Airport or City:

Trip Planner

Search our weather history database for the weather conditions in past years. The results will help you decide how hot, cold, wet, or windy it might be!

Date:

Astronomy

Mar. 30, 2012 Rise Set
Actual Time 7:14 AM EDT 7:46 PM EDT
Civil Twilight 6:48 AM EDT 8:11 PM EDT
Nautical Twilight 6:18 AM EDT 8:42 PM EDT
Astronomical Twilight 5:47 AM EDT 9:12 PM EDT
Moon 12:27 PM EDT (3/30) 2:12 AM EDT (3/30)
Length of Visible Light 13h 23m
Length of Day
12h 31m
Waxing Crescent, 49% of the Moon is Illuminated
Mar 30
Waxing Crescent
Mar 30
First Quarter
Apr 6
Full
Apr 13
Last Quarter
Apr 21
New

Hourly Weather History & Observations

Time (EDT) Temp. Dew Point Humidity Pressure Visibility Wind Dir Wind Speed Gust Speed Precip Events Conditions
12:53 AM 60.1 °F 48.0 °F 64% 29.91 in 10.0 mi Calm Calm - N/A   Mostly Cloudy
1:53 AM 57.9 °F 48.0 °F 70% 29.90 in 10.0 mi Calm Calm - N/A   Mostly Cloudy
2:53 AM 60.1 °F 44.1 °F 55% 29.89 in 10.0 mi Calm Calm - N/A   Clear
3:53 AM 55.0 °F 48.0 °F 77% 29.90 in 10.0 mi Calm Calm - N/A   Clear
4:53 AM 52.0 °F 46.9 °F 83% 29.91 in 10.0 mi North 3.5 mph - N/A   Clear
5:53 AM 54.0 °F 45.0 °F 72% 29.93 in 10.0 mi NE 3.5 mph - N/A   Partly Cloudy
6:53 AM 52.0 °F 41.0 °F 66% 29.96 in 10.0 mi ENE 6.9 mph - N/A   Partly Cloudy
7:53 AM 53.1 °F 43.0 °F 69% 29.99 in 10.0 mi NNE 3.5 mph - N/A   Clear
8:53 AM 57.0 °F 45.0 °F 64% 30.01 in 10.0 mi NE 6.9 mph - N/A   Clear
9:53 AM 59.0 °F 46.0 °F 62% 30.01 in 10.0 mi NE 8.1 mph - N/A   Clear
10:53 AM 62.1 °F 46.9 °F 58% 30.01 in 10.0 mi NE 6.9 mph - N/A   Clear
11:53 AM 64.9 °F 48.0 °F 54% 29.96 in 10.0 mi NNE 3.5 mph - N/A   Clear
12:53 PM 68.0 °F 48.0 °F 49% 29.94 in 10.0 mi Calm Calm - N/A   Clear
1:53 PM 72.0 °F 45.0 °F 38% 29.90 in 10.0 mi Calm Calm - N/A   Clear
2:53 PM 73.9 °F 45.0 °F 35% 29.86 in 10.0 mi Variable 3.5 mph - N/A   Clear
3:53 PM 75.0 °F 46.9 °F 37% 29.84 in 10.0 mi Variable 3.5 mph - N/A   Clear
4:53 PM 75.9 °F 50.0 °F 40% 29.83 in 10.0 mi Variable 4.6 mph - N/A   Partly Cloudy
5:53 PM 73.9 °F 51.1 °F 45% 29.84 in 10.0 mi SSW 8.1 mph - N/A   Clear
6:53 PM 72.0 °F 52.0 °F 49% 29.86 in 10.0 mi West 10.4 mph - 0.00 in Rain Light Rain
7:53 PM 63.0 °F 57.0 °F 81% 29.88 in 10.0 mi West 8.1 mph - 0.00 in Rain Light Rain
8:53 PM 63.0 °F 57.0 °F 81% 29.87 in 10.0 mi SSW 4.6 mph - 0.00 in Rain Light Rain
9:53 PM 62.1 °F 57.0 °F 84% 29.87 in 10.0 mi SSW 3.5 mph - 0.00 in Rain Light Rain
10:53 PM 61.0 °F 57.0 °F 87% 29.87 in 10.0 mi SSW 8.1 mph 17.3 mph 0.01 in   Overcast
11:53 PM 60.1 °F 57.0 °F 90% 29.85 in 10.0 mi WNW 3.5 mph - 0.00 in   Mostly Cloudy